Weather History for Poplar Bluff, MO

Change the Weather History Date:

Saturday, May 3, 2014

  Actual Average Record
Temperature  
Mean Temperature 62 °F -  
Max Temperature 79 °F 73 °F 99 °F (1955)
Min Temperature 46 °F 49 °F 34 °F (1967)
Degree Days  
Heating Degree Days 2    
Growing Degree Days 12 (Base 50)    
Moisture  
Dew Point 43 °F    
Average Humidity 49    
Maximum Humidity 80    
Minimum Humidity 25    
Precipitation  
Precipitation 0.00 in - - ()
Sea Level Pressure  
Sea Level Pressure 29.92 in    
Wind  
Wind Speed 5 mph (SSW)    
Max Wind Speed 16 mph    
Max Gust Speed 22 mph    
Visibility 10 miles    
Events      
Averages and records for this station are not official NWS values.
T = Trace of Precipitation, MM = Missing Value Source: NWS Daily Summary

Daily Weather History Graph

Daily Weather History Graph

Search for Another Location

Airport:

Trip Planner

Search our weather history database for the weather conditions in past years. The results will help you decide how hot, cold, wet, or windy it might be!

Date:

Astronomy

May. 03, 2014 Rise Set
Actual Time 6:05 AM CDT 7:51 PM CDT
Civil Twilight 5:37 AM CDT 8:19 PM CDT
Nautical Twilight 5:03 AM CDT 8:53 PM CDT
Astronomical Twilight 4:27 AM CDT 9:29 PM CDT
Moon 9:36 AM CDT (5/3) 11:57 PM CDT (5/3)
Length of Visible Light 14h 42m
Length of Day
13h 46m
Waxing Crescent, 20% of the Moon is Illuminated
May 3
Waxing Crescent
May 6
First Quarter
May 14
Full
May 21
Last Quarter
May 28
New

Hourly Weather History & Observations

Time (CDT) Temp. Dew Point Humidity Pressure Visibility Wind Dir Wind Speed Gust Speed Precip Events Conditions
12:53 AM 50.0 °F 43.0 °F 77% 29.92 in 10.0 mi Calm Calm - N/A   Clear
1:53 AM 48.9 °F 43.0 °F 80% 29.90 in 10.0 mi SW 3.5 mph - N/A   Clear
2:53 AM 48.0 °F 42.1 °F 80% 29.90 in 10.0 mi Calm Calm - N/A   Clear
3:53 AM 48.0 °F 42.1 °F 80% 29.90 in 10.0 mi SW 3.5 mph - N/A   Clear
5:53 AM 46.9 °F 41.0 °F 80% 29.91 in 10.0 mi SSW 4.6 mph - N/A   Clear
6:53 AM 50.0 °F 39.9 °F 68% 29.93 in 10.0 mi SW 5.8 mph - N/A   Clear
7:53 AM 54.0 °F 41.0 °F 62% 29.94 in 10.0 mi WSW 6.9 mph - N/A   Scattered Clouds
8:53 AM 59.0 °F 41.0 °F 51% 29.97 in 10.0 mi WSW 6.9 mph - N/A   Clear
9:53 AM 64.0 °F 42.1 °F 45% 29.97 in 10.0 mi SW 8.1 mph - N/A   Clear
10:53 AM 71.1 °F 39.9 °F 32% 29.96 in 10.0 mi Variable 5.8 mph - N/A   Clear
11:53 AM 73.9 °F 36.0 °F 25% 29.96 in 10.0 mi West 6.9 mph - N/A   Clear
12:53 PM 75.0 °F 39.9 °F 28% 29.94 in 10.0 mi South 6.9 mph - N/A   Clear
1:53 PM 77.0 °F 44.1 °F 31% 29.92 in 10.0 mi South 10.4 mph - N/A   Clear
2:53 PM 78.1 °F 43.0 °F 29% 29.91 in 10.0 mi South 9.2 mph - N/A   Clear
3:53 PM 79.0 °F 45.0 °F 30% 29.89 in 10.0 mi South 16.1 mph 21.9 mph N/A   Clear
4:53 PM 79.0 °F 46.0 °F 31% 29.89 in 10.0 mi South 13.8 mph - N/A   Clear
5:53 PM 78.1 °F 46.0 °F 32% 29.89 in 10.0 mi South 13.8 mph - N/A   Clear
6:53 PM 77.0 °F 46.9 °F 34% 29.89 in 10.0 mi SSW 11.5 mph - N/A   Clear
7:53 PM 73.0 °F 46.9 °F 39% 29.91 in 10.0 mi SSW 10.4 mph - N/A   Clear
8:53 PM 70.0 °F 46.9 °F 44% 29.92 in 10.0 mi SSW 9.2 mph - N/A   Clear
9:53 PM 66.9 °F 48.0 °F 51% 29.93 in 10.0 mi SSW 8.1 mph - N/A   Clear
10:53 PM 64.9 °F 48.0 °F 54% 29.93 in 10.0 mi SW 6.9 mph - N/A   Clear
11:53 PM 64.9 °F 48.0 °F 54% 29.94 in 10.0 mi SSW 4.6 mph - N/A   Clear